Location: Marsån
(66.4167°N, 22.2833°E)
Time: 08:44:54
(UTC+00:00)

NOSS 0 Rocket - Pass Details

Date: 24 February 2024
Orbit: 936 x 952 km, 70.0° (Epoch: 20 April)

Event Time Altitude Azimuth Distance (km) Brightness Sun altitude
Rises 18:36:43 0° 302° (WNW) 3,610 8.5 -19.7°
Reaches altitude 10° 18:39:14 10° 302° (WNW) 2,663 7.5 -19.9°
Maximum altitude 18:45:26 86° 215° (SW) 949 3.9 -20.5°
Enters shadow 18:48:00 38° 129° (SE) 1,405 4.3 -20.7°
